Simultaneous Nadir Overpasses (SNOs) Predictions

Prediction of SNOs between GOES-17 and LANDSAT-8 Satellite Orbit:

Table of predicted SNOs for the next 14.0 days since TLE Epoch: 5/14/2022
Index Date Time (GOES-17) GOES-17 Lat,Lon LANDSAT-8 Lat,Lon Distance(km) Time Diff (sec)
1 05/14/2022 07:04:33 -0.04,-137.20 0.71,-133.53 416.74 80
2 05/14/2022 19:25:49 0.04,-137.20 0.37,-138.69 169.41 80
3 05/16/2022 19:16:19 0.04,-137.20 -0.30,-135.74 166.28 80
4 05/17/2022 07:37:43 -0.03,-137.19 -0.83,-140.93 424.48 80
5 05/19/2022 07:25:32 -0.03,-137.18 -0.20,-137.97 90.13 80
6 05/21/2022 07:10:41 -0.02,-137.16 0.43,-135.01 243.78 80
7 05/21/2022 19:31:57 0.02,-137.15 0.65,-140.17 343.13 80
8 05/23/2022 19:19:46 0.01,-137.13 0.00,-137.21 9.71 80
9 05/25/2022 19:10:14 0.01,-137.10 -0.59,-134.25 324.74 80
10 05/26/2022 07:31:38 -0.01,-137.10 -0.52,-139.44 266.14 80
